Terminal Aerodrome Forecast
Issued by NWS Pittsburgh, PA

Current Version | Previous Version | Text Only | Print | Product List | Glossary Off
Versions: 1 2 3 4 5 6 7 8 9 10 11 12 13 14 15 16 17 18 19 20 21 22 23 24 25 26 27

894
FTUS41 KPBZ 051722
TAFPIT
TAF
KPIT 051722Z 0518/0624 28006KT P6SM SCT027 BKN035
      TEMPO 0518/0520 BKN027
     FM052200 VRB03KT P6SM BKN200
     FM061500 11008KT P6SM -RA OVC040
     FM061800 13009KT 2SM -RA OVC015=

USA.gov is the U.S. government's official web portal to all federal, state and local government web resources and services.